TimeCST,TemperatureF,Dew PointF,Humidity,Sea Level PressureIn,VisibilityMPH,Wind Direction,Wind SpeedMPH,Gust SpeedMPH,PrecipitationIn,Events,Conditions,WindDirDegrees,DateUTC
12:01 AM,66.2,64.4,94,30.08,8.0,East,4.6,-,N/A,,Partly Cloudy,80,2012-12-03 06:01:00
12:53 AM,64.9,62.1,90,30.07,6.0,NNE,4.6,-,N/A,,Mostly Cloudy,30,2012-12-03 06:53:00
1:45 AM,66.2,64.4,94,30.06,9.0,East,3.5,-,N/A,,Scattered Clouds,80,2012-12-03 07:45:00
1:53 AM,66.9,64.9,93,30.06,7.0,East,3.5,-,N/A,,Partly Cloudy,100,2012-12-03 07:53:00
2:53 AM,66.9,64.9,93,30.05,10.0,ESE,4.6,-,N/A,,Partly Cloudy,120,2012-12-03 08:53:00
3:53 AM,66.0,64.0,93,30.04,9.0,ESE,4.6,-,N/A,,Clear,110,2012-12-03 09:53:00
4:37 AM,66.2,64.4,94,30.04,1.5,ESE,3.5,-,N/A,,Clear,110,2012-12-03 10:37:00
4:43 AM,66.2,64.4,94,30.04,0.5,ESE,3.5,-,N/A,Fog,Fog,110,2012-12-03 10:43:00
4:53 AM,66.0,64.0,93,30.04,0.5,SE,3.5,-,N/A,Fog,Fog,130,2012-12-03 10:53:00
5:45 AM,64.4,62.6,94,30.05,0.5,Calm,Calm,-,N/A,Fog,Fog,0,2012-12-03 11:45:00
5:53 AM,63.0,62.1,97,30.05,0.5,Calm,Calm,-,N/A,Fog,Fog,0,2012-12-03 11:53:00
6:53 AM,62.1,60.1,93,30.06,0.5,Calm,Calm,-,N/A,Fog,Fog,0,2012-12-03 12:53:00
7:53 AM,66.0,64.0,93,30.08,0.2,SSE,4.6,-,N/A,Fog,Fog,150,2012-12-03 13:53:00
8:03 AM,69.8,66.2,88,30.08,2.5,Calm,Calm,-,N/A,,Mostly Cloudy,0,2012-12-03 14:03:00
8:10 AM,69.8,69.8,100,30.08,6.0,South,3.5,-,N/A,,Mostly Cloudy,170,2012-12-03 14:10:00
8:20 AM,71.6,69.8,94,30.08,9.0,SSW,3.5,-,N/A,,Mostly Cloudy,200,2012-12-03 14:20:00
8:29 AM,71.6,69.8,94,30.08,10.0,SSW,4.6,-,N/A,,Scattered Clouds,200,2012-12-03 14:29:00
8:53 AM,71.6,69.8,94,30.08,10.0,SSW,4.6,-,N/A,,Partly Cloudy,200,2012-12-03 14:53:00
11:53 AM,79.0,66.9,66,30.06,10.0,SSW,11.5,-,N/A,,Clear,200,2012-12-03 17:53:00
12:53 PM,78.8,66.2,65,30.04,10.0,South,11.5,-,N/A,,Clear,190,2012-12-03 18:53:00
1:53 PM,80.1,66.9,64,30.02,10.0,South,11.5,-,N/A,,Clear,170,2012-12-03 19:53:00
2:53 PM,79.0,68.0,69,30.01,10.0,SSW,8.1,-,N/A,,Clear,200,2012-12-03 20:53:00
3:53 PM,78.1,68.0,71,30.01,10.0,SSW,8.1,-,N/A,,Clear,200,2012-12-03 21:53:00
4:53 PM,77.0,68.0,74,30.02,10.0,SSE,6.9,-,N/A,,Clear,160,2012-12-03 22:53:00
6:36 PM,71.6,66.2,83,30.02,10.0,ESE,5.8,-,N/A,,Mostly Cloudy,120,2012-12-04 00:36:00
6:53 PM,73.0,68.0,84,30.02,10.0,SE,6.9,-,N/A,,Overcast,130,2012-12-04 00:53:00
7:31 PM,71.6,68.0,88,30.03,10.0,SE,6.9,-,N/A,,Scattered Clouds,130,2012-12-04 01:31:00
7:53 PM,71.1,66.9,87,30.03,10.0,SE,6.9,-,N/A,,Partly Cloudy,140,2012-12-04 01:53:00
8:53 PM,71.1,68.0,90,30.04,10.0,SE,8.1,-,N/A,,Clear,140,2012-12-04 02:53:00
9:53 PM,71.1,68.0,90,30.05,10.0,SE,5.8,-,N/A,,Clear,140,2012-12-04 03:53:00
10:53 PM,72.0,68.0,87,30.04,10.0,SSE,9.2,-,0.01,,Partly Cloudy,150,2012-12-04 04:53:00
11:53 PM,71.6,68.0,88,30.04,10.0,SSE,9.2,-,N/A,,Clear,150,2012-12-04 05:53:00